Location: Bazugues
(43.4465°N, 0.3432°E)
Time: 19:15:57
(UTC+00:00)

Cosmos 1452 Rocket - Pass Details

Date: 12 January 2026
Orbit: 762 x 771 km, 74.1° (Epoch: 13 February)

Event Time Altitude Azimuth Distance (km) Brightness Sun altitude
Rises 19:08:56 0° 211° (SSW) 3,218 7.2 -25.6°
Reaches altitude 10° 19:11:21 10° 216° (SW) 2,298 6.5 -26.1°
Maximum altitude 19:16:27 55° 294° (WNW) 919 4.1 -27.0°
Enters shadow 19:18:25 35° 353° (N) 1,227 4.5 -27.3°
